Location: ??
(34.7707°N, 135.6540°E)
Time: 22:16:40
(UTC+00:00)

CZ-4C R/B - Pass Details

Date: 09 April 2020
Orbit: 637 x 1364 km, 63.4° (Epoch: 24 May)

Event Time Altitude Azimuth Distance (km) Brightness Sun altitude
Rises 13:54:54 0° 329° (NNW) 3,959 6.4 -44.7°
Reaches altitude 10° 13:57:28 10° 330° (NNW) 3,088 5.7 -44.9°
Enters shadow 14:01:05 33° 331° (NNW) 1,952 4.3 -45.2°
